Time,TemperatureF,DewpointF,PressureIn,WindDirection,WindDirectionDegrees,WindSpeedMPH,WindSpeedGustMPH,Humidity,HourlyPrecipIn,Conditions,Clouds,dailyrainin,SoftwareType,DateUTC
2013-09-07 00:10:00,50.8,49.0,30.08,West,265,0.0,0.0,93,0.00,,,0.00,weatherlink.com 1.10,2013-09-07 04:10:00,
2013-09-07 00:25:00,50.6,49.0,30.08,West,265,0.0,0.0,93,0.00,,,0.00,weatherlink.com 1.10,2013-09-07 04:25:00,
2013-09-07 00:40:00,50.3,49.0,30.09,West,265,0.0,0.0,94,0.00,,,0.00,weatherlink.com 1.10,2013-09-07 04:40:00,
2013-09-07 00:55:00,50.1,49.0,30.08,West,265,0.0,0.0,94,0.00,,,0.00,weatherlink.com 1.10,2013-09-07 04:55:00,
2013-09-07 01:10:00,49.9,48.0,30.07,West,265,0.0,0.0,94,0.00,,,0.00,weatherlink.com 1.10,2013-09-07 05:10:00,
2013-09-07 01:25:00,49.6,48.0,30.07,West,265,0.0,0.0,95,0.00,,,0.00,weatherlink.com 1.10,2013-09-07 05:25:00,
2013-09-07 01:40:00,49.3,48.0,30.07,West,265,0.0,0.0,95,0.00,,,0.00,weatherlink.com 1.10,2013-09-07 05:40:00,
2013-09-07 01:55:00,49.1,48.0,30.07,West,265,0.0,0.0,95,0.00,,,0.00,weatherlink.com 1.10,2013-09-07 05:55:00,
2013-09-07 02:10:00,48.8,48.0,30.07,West,265,0.0,0.0,95,0.00,,,0.00,weatherlink.com 1.10,2013-09-07 06:10:00,
2013-09-07 02:26:00,48.5,47.0,30.06,West,265,0.0,0.0,95,0.00,,,0.00,weatherlink.com 1.10,2013-09-07 06:26:00,
2013-09-07 02:40:00,48.4,47.0,30.05,West,265,0.0,0.0,95,0.00,,,0.00,weatherlink.com 1.10,2013-09-07 06:40:00,
2013-09-07 02:55:00,48.1,47.0,30.05,West,265,0.0,0.0,96,0.00,,,0.00,weatherlink.com 1.10,2013-09-07 06:55:00,
2013-09-07 03:10:00,47.9,47.0,30.06,West,265,0.0,0.0,95,0.00,,,0.00,weatherlink.com 1.10,2013-09-07 07:10:00,
2013-09-07 03:25:00,47.8,47.0,30.06,West,265,0.0,0.0,96,0.00,,,0.00,weatherlink.com 1.10,2013-09-07 07:25:00,
2013-09-07 03:40:00,47.7,47.0,30.07,West,265,0.0,0.0,96,0.00,,,0.00,weatherlink.com 1.10,2013-09-07 07:40:00,
2013-09-07 03:55:00,47.6,47.0,30.07,West,265,0.0,0.0,96,0.00,,,0.00,weatherlink.com 1.10,2013-09-07 07:55:00,
2013-09-07 04:10:00,47.5,47.0,30.06,West,265,0.0,0.0,96,0.00,,,0.00,weatherlink.com 1.10,2013-09-07 08:10:00,
2013-09-07 04:25:00,47.5,47.0,30.05,West,265,0.0,0.0,96,0.00,,,0.00,weatherlink.com 1.10,2013-09-07 08:25:00,
2013-09-07 04:40:00,47.7,47.0,30.06,West,265,0.0,0.0,97,0.00,,,0.00,weatherlink.com 1.10,2013-09-07 08:40:00,
2013-09-07 04:55:00,47.7,47.0,30.05,West,265,0.0,0.0,97,0.00,,,0.00,weatherlink.com 1.10,2013-09-07 08:55:00,
2013-09-07 05:10:00,47.6,47.0,30.05,West,265,0.0,0.0,97,0.00,,,0.00,weatherlink.com 1.10,2013-09-07 09:10:00,
2013-09-07 05:25:00,47.4,47.0,30.05,West,265,0.0,0.0,97,0.00,,,0.00,weatherlink.com 1.10,2013-09-07 09:25:00,
2013-09-07 05:40:00,47.3,47.0,30.05,West,265,0.0,0.0,97,0.00,,,0.00,weatherlink.com 1.10,2013-09-07 09:40:00,
2013-09-07 05:55:00,47.2,46.0,30.06,West,265,0.0,0.0,97,0.00,,,0.00,weatherlink.com 1.10,2013-09-07 09:55:00,
2013-09-07 06:10:00,47.0,46.0,30.05,West,265,0.0,0.0,97,0.00,,,0.00,weatherlink.com 1.10,2013-09-07 10:10:00,
2013-09-07 06:25:00,46.8,46.0,30.05,West,265,0.0,0.0,97,0.00,,,0.00,weatherlink.com 1.10,2013-09-07 10:25:00,
2013-09-07 06:40:00,46.9,46.0,30.05,West,265,0.0,0.0,97,0.00,,,0.00,weatherlink.com 1.10,2013-09-07 10:40:00,
2013-09-07 06:55:00,47.4,47.0,30.05,SSE,163,0.0,0.0,98,0.00,,,0.00,weatherlink.com 1.10,2013-09-07 10:55:00,
2013-09-07 07:10:00,48.1,48.0,30.05,SSE,163,0.0,1.0,98,0.00,,,0.00,weatherlink.com 1.10,2013-09-07 11:10:00,
2013-09-07 07:25:00,48.7,48.0,30.05,SSE,163,0.0,0.0,98,0.00,,,0.00,weatherlink.com 1.10,2013-09-07 11:25:00,
2013-09-07 07:40:00,49.2,49.0,30.05,SSE,150,0.0,2.0,99,0.00,,,0.00,weatherlink.com 1.10,2013-09-07 11:40:00,
2013-09-07 07:55:00,50.6,50.0,30.04,SSE,150,0.0,0.0,99,0.00,,,0.00,weatherlink.com 1.10,2013-09-07 11:55:00,
2013-09-07 08:10:00,51.4,51.0,30.04,SSE,150,0.0,3.0,98,0.00,,,0.00,weatherlink.com 1.10,2013-09-07 12:10:00,
2013-09-07 08:25:00,52.5,51.0,30.04,SSE,150,0.0,0.0,96,0.00,,,0.00,weatherlink.com 1.10,2013-09-07 12:25:00,
2013-09-07 08:40:00,53.5,52.0,30.04,SE,138,0.0,4.0,93,0.00,,,0.00,weatherlink.com 1.10,2013-09-07 12:40:00,
2013-09-07 08:55:00,54.6,52.0,30.04,SSE,155,2.0,5.0,90,0.00,,,0.00,weatherlink.com 1.10,2013-09-07 12:55:00,
2013-09-07 09:10:00,55.3,52.0,30.03,South,170,0.0,4.0,87,0.00,,,0.00,weatherlink.com 1.10,2013-09-07 13:10:00,
2013-09-07 09:25:00,56.7,52.0,30.04,SSE,156,3.0,5.0,85,0.00,,,0.00,weatherlink.com 1.10,2013-09-07 13:25:00,
2013-09-07 09:40:00,58.0,53.0,30.03,East,82,0.0,5.0,84,0.00,,,0.00,weatherlink.com 1.10,2013-09-07 13:40:00,
2013-09-07 09:55:00,59.1,54.0,30.02,SSE,158,4.0,6.0,82,0.00,,,0.00,weatherlink.com 1.10,2013-09-07 13:55:00,
2013-09-07 10:10:00,60.1,53.0,30.02,SSE,167,3.0,5.0,78,0.00,,,0.00,weatherlink.com 1.10,2013-09-07 14:10:00,
2013-09-07 10:26:00,60.8,54.0,30.01,SE,138,4.0,6.0,77,0.00,,,0.00,weatherlink.com 1.10,2013-09-07 14:26:00,
2013-09-07 10:41:00,62.2,54.0,30.01,SSE,153,1.0,7.0,75,0.00,,,0.00,weatherlink.com 1.10,2013-09-07 14:41:00,
2013-09-07 10:56:00,63.1,55.0,30.02,SE,130,0.0,3.0,74,0.00,,,0.00,weatherlink.com 1.10,2013-09-07 14:56:00,
2013-09-07 11:11:00,64.7,56.0,30.00,SSE,148,2.0,6.0,73,0.00,,,0.00,weatherlink.com 1.10,2013-09-07 15:11:00,
2013-09-07 11:26:00,65.4,56.0,30.00,SE,134,3.0,7.0,72,0.00,,,0.00,weatherlink.com 1.10,2013-09-07 15:26:00,
2013-09-07 11:41:00,66.7,56.0,30.00,SSE,166,1.0,7.0,68,0.00,,,0.00,weatherlink.com 1.10,2013-09-07 15:41:00,
2013-09-07 11:56:00,67.4,56.0,29.99,ESE,122,0.0,5.0,68,0.00,,,0.00,weatherlink.com 1.10,2013-09-07 15:56:00,
2013-09-07 12:11:00,67.9,56.0,29.98,SE,144,3.0,5.0,67,0.00,,,0.00,weatherlink.com 1.10,2013-09-07 16:11:00,
2013-09-07 12:26:00,68.8,58.0,29.96,ESE,118,0.0,9.0,68,0.00,,,0.00,weatherlink.com 1.10,2013-09-07 16:26:00,
2013-09-07 12:41:00,69.5,58.0,29.96,SSE,155,2.0,5.0,66,0.00,,,0.00,weatherlink.com 1.10,2013-09-07 16:41:00,
2013-09-07 12:56:00,70.4,58.0,29.95,SE,128,0.0,9.0,64,0.00,,,0.00,weatherlink.com 1.10,2013-09-07 16:56:00,
2013-09-07 13:11:00,70.8,56.0,29.94,East,92,1.0,7.0,59,0.00,,,0.00,weatherlink.com 1.10,2013-09-07 17:11:00,
2013-09-07 13:26:00,71.0,57.0,29.93,SSE,163,0.0,9.0,61,0.00,,,0.00,weatherlink.com 1.10,2013-09-07 17:26:00,
2013-09-07 13:41:00,71.0,54.0,29.92,East,96,3.0,7.0,56,0.00,,,0.00,weatherlink.com 1.10,2013-09-07 17:41:00,
2013-09-07 13:56:00,71.6,56.0,29.92,ESE,115,2.0,6.0,58,0.00,,,0.00,weatherlink.com 1.10,2013-09-07 17:56:00,
2013-09-07 14:11:00,71.8,55.0,29.91,SSE,161,3.0,7.0,56,0.00,,,0.00,weatherlink.com 1.10,2013-09-07 18:11:00,
2013-09-07 14:26:00,71.8,54.0,29.91,SE,126,1.0,7.0,54,0.00,,,0.00,weatherlink.com 1.10,2013-09-07 18:26:00,
2013-09-07 14:41:00,71.3,55.0,29.90,ESE,108,0.0,7.0,56,0.00,,,0.00,weatherlink.com 1.10,2013-09-07 18:41:00,
2013-09-07 14:56:00,71.5,55.0,29.90,SE,146,0.0,6.0,57,0.00,,,0.00,weatherlink.com 1.10,2013-09-07 18:56:00,
2013-09-07 15:11:00,71.3,57.0,29.90,SE,146,0.0,3.0,61,0.00,,,0.00,weatherlink.com 1.10,2013-09-07 19:11:00,
2013-09-07 15:26:00,71.3,57.0,29.90,SSE,154,2.0,4.0,61,0.00,,,0.00,weatherlink.com 1.10,2013-09-07 19:26:00,
2013-09-07 15:41:00,70.7,57.0,29.89,SSE,154,0.0,2.0,62,0.00,,,0.00,weatherlink.com 1.10,2013-09-07 19:41:00,
2013-09-07 15:56:00,69.6,59.0,29.89,SSE,151,0.0,1.0,69,0.00,,,0.00,weatherlink.com 1.10,2013-09-07 19:56:00,
2013-09-07 16:11:00,68.9,60.0,29.89,SSE,152,0.0,0.0,72,0.00,,,0.00,weatherlink.com 1.10,2013-09-07 20:11:00,
2013-09-07 16:26:00,68.6,60.0,29.89,SSE,151,0.0,0.0,74,0.00,,,0.00,weatherlink.com 1.10,2013-09-07 20:26:00,
2013-09-07 16:41:00,67.9,62.0,29.89,SSE,151,0.0,0.0,80,0.00,,,0.00,weatherlink.com 1.10,2013-09-07 20:41:00,
2013-09-07 16:56:00,67.9,63.0,29.89,SSE,152,0.0,0.0,83,0.00,,,0.00,weatherlink.com 1.10,2013-09-07 20:56:00,
2013-09-07 17:11:00,67.4,62.0,29.89,SSE,151,0.0,0.0,83,0.00,,,0.00,weatherlink.com 1.10,2013-09-07 21:11:00,
2013-09-07 17:26:00,67.0,63.0,29.89,SSE,151,0.0,0.0,86,0.00,,,0.00,weatherlink.com 1.10,2013-09-07 21:26:00,
2013-09-07 17:41:00,66.2,62.0,29.88,West,271,0.0,2.0,86,0.00,,,0.00,weatherlink.com 1.10,2013-09-07 21:41:00,
2013-09-07 17:56:00,66.8,63.0,29.88,West,271,0.0,1.0,87,0.00,,,0.00,weatherlink.com 1.10,2013-09-07 21:56:00,
2013-09-07 18:11:00,66.3,63.0,29.88,West,271,0.0,0.0,88,0.00,,,0.00,weatherlink.com 1.10,2013-09-07 22:11:00,
2013-09-07 18:26:00,66.2,61.0,29.88,West,271,0.0,0.0,84,0.00,,,0.00,weatherlink.com 1.10,2013-09-07 22:26:00,
2013-09-07 18:41:00,65.6,62.0,29.87,West,271,0.0,0.0,88,0.00,,,0.00,weatherlink.com 1.10,2013-09-07 22:41:00,
2013-09-07 18:56:00,65.0,61.0,29.87,West,271,0.0,3.0,86,0.00,,,0.00,weatherlink.com 1.10,2013-09-07 22:56:00,
2013-09-07 19:11:00,65.0,60.0,29.87,West,271,0.0,0.0,85,0.00,,,0.00,weatherlink.com 1.10,2013-09-07 23:11:00,
2013-09-07 19:26:00,63.7,61.0,29.87,West,271,0.0,0.0,89,0.00,,,0.00,weatherlink.com 1.10,2013-09-07 23:26:00,
2013-09-07 19:41:00,62.7,60.0,29.88,West,271,0.0,0.0,91,0.00,,,0.00,weatherlink.com 1.10,2013-09-07 23:41:00,
2013-09-07 19:56:00,62.3,60.0,29.87,West,271,0.0,0.0,92,0.00,,,0.00,weatherlink.com 1.10,2013-09-07 23:56:00,
2013-09-07 20:11:00,61.9,60.0,29.88,West,271,0.0,0.0,93,0.00,,,0.00,weatherlink.com 1.10,2013-09-08 00:11:00,
2013-09-07 20:26:00,61.9,60.0,29.87,West,271,0.0,0.0,93,0.00,,,0.00,weatherlink.com 1.10,2013-09-08 00:26:00,
2013-09-07 20:41:00,62.0,60.0,29.87,West,271,0.0,0.0,93,0.00,,,0.00,weatherlink.com 1.10,2013-09-08 00:41:00,
2013-09-07 20:56:00,62.0,60.0,29.87,West,271,0.0,0.0,93,0.00,,,0.00,weatherlink.com 1.10,2013-09-08 00:56:00,
2013-09-07 21:11:00,62.0,60.0,29.88,West,271,0.0,0.0,93,0.00,,,0.00,weatherlink.com 1.10,2013-09-08 01:11:00,
2013-09-07 21:26:00,61.9,60.0,29.87,West,271,0.0,0.0,94,0.00,,,0.00,weatherlink.com 1.10,2013-09-08 01:26:00,
2013-09-07 21:41:00,61.8,60.0,29.87,West,271,0.0,0.0,94,0.00,,,0.00,weatherlink.com 1.10,2013-09-08 01:41:00,
2013-09-07 21:56:00,61.6,60.0,29.86,West,271,0.0,0.0,94,0.00,,,0.00,weatherlink.com 1.10,2013-09-08 01:56:00,
2013-09-07 22:11:00,61.6,60.0,29.85,West,271,0.0,0.0,95,0.00,,,0.00,weatherlink.com 1.10,2013-09-08 02:11:00,
2013-09-07 22:26:00,61.5,60.0,29.85,West,271,0.0,0.0,95,0.00,,,0.00,weatherlink.com 1.10,2013-09-08 02:26:00,
2013-09-07 22:41:00,61.4,60.0,29.85,West,271,0.0,0.0,95,0.00,,,0.00,weatherlink.com 1.10,2013-09-08 02:41:00,
2013-09-07 22:56:00,61.4,60.0,29.84,West,271,0.0,0.0,95,0.00,,,0.00,weatherlink.com 1.10,2013-09-08 02:56:00,
2013-09-07 23:11:00,61.3,60.0,29.84,West,271,0.0,0.0,95,0.00,,,0.00,weatherlink.com 1.10,2013-09-08 03:11:00,
2013-09-07 23:26:00,61.3,60.0,29.83,West,271,0.0,0.0,95,0.00,,,0.00,weatherlink.com 1.10,2013-09-08 03:26:00,
2013-09-07 23:42:00,61.2,60.0,29.83,West,271,0.0,0.0,95,0.00,,,0.00,weatherlink.com 1.10,2013-09-08 03:42:00,
2013-09-07 23:57:00,61.0,60.0,29.83,West,271,0.0,0.0,95,0.00,,,0.00,weatherlink.com 1.10,2013-09-08 03:57:00,